Location: Huesca
(42.1318°N, 0.4078°W)
Time: 09:16:54
(UTC+02:00)

TIGRISAT - Pass Details

Date: 24 April 2024
Orbit: 594 x 672 km, 97.7° (Epoch: 21 May)

Event Time Altitude Azimuth Distance (km) Brightness Sun altitude
Rises 05:29:50 0° 150° (SSE) 2,934 ? -16.8°
Reaches altitude 10° 05:32:07 10° 144° (SE) 2,016 ? -16.4°
Maximum altitude 05:36:17 45° 72° (ENE) 862 ? -15.8°
Drops below altitude 10° 05:40:24 10° 1° (N) 1,984 ? -15.2°
Sets 05:42:37 0° 355° (N) 2,882 ? -14.8°
